This is the latest recevied weather packets stored in our database for station/object SV6GMP-10. If no packets are shown the sender has not sent any weather packets the latest 1 day(s).
| Time | Temp. | Humidity | Pressure | Rain* | Wind** | Luminosity | Snow |
|---|---|---|---|---|---|---|---|
| 1778107125 | 21.11° C | 75% | 1017.5 hPa | - | - | - | - |
| 1778102618 | 21.67° C | 74% | 1018.2 hPa | - | - | - | - |
| 1778099017 | 21.67° C | 74% | 1018.3 hPa | - | - | - | - |
| 1778093825 | 22.22° C | 71% | 1017.9 hPa | - | - | - | - |
| 1778087918 | 22.22° C | 72% | 1017.5 hPa | - | - | - | - |
| 1778087018 | 22.22° C | 70% | 1017.4 hPa | - | - | - | - |
| 1778086118 | 22.22° C | 72% | 1017.4 hPa | - | - | - | - |
| 1778085218 | 22.78° C | 72% | 1017.5 hPa | - | - | - | - |
| 1778081617 | 22.22° C | 71% | 1017 hPa | - | - | - | - |
| 1778079817 | 22.22° C | 72% | 1017.3 hPa | - | - | - | - |
| 1778078917 | 22.22° C | 72% | 1017.4 hPa | - | - | - | - |
| 1778078017 | 22.22° C | 72% | 1017.5 hPa | - | - | - | - |
| 1778076221 | 21.67° C | 72% | 1017.4 hPa | - | - | - | - |
| 1778073516 | 21.67° C | 73% | 1017.7 hPa | - | - | - | - |
| 1778072616 | 21.67° C | 73% | 1017.8 hPa | - | - | - | - |
| 1778071716 | 21.67° C | 73% | 1018.1 hPa | - | - | - | - |
| 1778070816 | 21.67° C | 73% | 1018.1 hPa | - | - | - | - |
| 1778069020 | 21.67° C | 74% | 1018.3 hPa | - | - | - | - |
| 1778066315 | 21.11° C | 75% | 1018.5 hPa | - | - | - | - |
| 1778064515 | 21.11° C | 76% | 1018.6 hPa | - | - | - | - |
| 1778063615 | 21.11° C | 76% | 1018.4 hPa | - | - | - | - |
| 1778062715 | 20.56° C | 76% | 1018.5 hPa | - | - | - | - |
| 1778061819 | 20.56° C | 76% | 1018.7 hPa | - | - | - | - |
| 1778060919 | 20.56° C | 76% | 1018.6 hPa | - | - | - | - |
| 1778057314 | 20.56° C | 76% | 1018.6 hPa | - | - | - | - |
* Rain since midnight (hover to see other rain measurements)
** Current wind speed in m/s (hover to see current wind gust speed)